Weather Service Report


164 
ASUS45 KSLC 202310
RWRUT 

UTAH REGIONAL WEATHER ROUNDUP
NATIONAL WEATHER SERVICE SALT LAKE CITY UT
500 PM MDT THU SEP 20 2018

UTZ001>011-023>025-210000-

NORTHERN UTAH
  
CITY           SKY/WX    TMP DP  RH WIND       PRES   REMARKS
BRIGHAM CITY   SUNNY     73   6   7 W6        30.10S                  
HILL AFB       NOT AVBL                                               
LOGAN          SUNNY     71  20  14 W8        30.09R                  
OGDEN          SUNNY     70  14  11 W8        30.11S                  
SALT LAKE CITY SUNNY     72  25  17 N3        30.10S                  
TOOELE VALLEY  SUNNY     70  32  24 N9        30.11S                  
WENDOVER       SUNNY     75  23  14 E10       30.08S                  
HEBER CITY       N/A     72  18  13 N6        30.10S                  
WEST JORDAN    SUNNY     70  31  23 NW15G21   30.12S                  

$$

UTZ011>015-024>027-210000-

CENTRAL/NORTHEAST UTAH
  
CITY           SKY/WX    TMP DP  RH WIND       PRES   REMARKS
PROVO AIRPORT  SUNNY     73  29  19 NW12      30.11S                  
MOAB/CANYONLAN SUNNY     81  15   8 W15G23    29.97S                  
DELTA          SUNNY     73  18  12 NW5G17    30.10S                  
PRICE          SUNNY     76  15  10 VRB7G18   30.08S                  
RICHFIELD      SUNNY     75  75 100 NE5       30.08S                  
ROOSEVELT      SUNNY     79  10   7 W23       30.02R                  
VERNAL         SUNNY     78  11   8 S5        30.02R                  

$$

UTZ013>016-019>022-027-210000-

SOUTHERN UTAH
  
CITY           SKY/WX    TMP DP  RH WIND       PRES   REMARKS
BRYCE CANYON   NOT AVBL                                               
CEDAR CITY     SUNNY     77  17  10 W6        30.11S                  
MILFORD        SUNNY     78  19  11 NE13      30.08S                  
ST GEORGE      CLEAR     90  31  12 W12G18    29.90F                  
HANKSVILLE     SUNNY     84  18   8 NW10G17   30.00S                  
KANAB          SUNNY     84  16   8 W9        30.03F                  
BLANDING         N/A     80  20  11 N8        30.11F                  

$$

REGIONAL REPORTS     COLORADO/ARIZONA
  
CITY           SKY/WX    TMP DP  RH WIND       PRES   REMARKS
CRAIG, CO      SUNNY     74  23  15 W12G21    30.07R                  
GRAND JUNCTION SUNNY     82  28  14 SW6       29.97S                  
RIFLE, CO      MOSUNNY   80  11   7 NW13G26   29.99R                  
MONTROSE, CO   SUNNY     77  34  21 NW8       30.04R                  
CORTEZ, CO     SUNNY     79  38  22 W9        30.04S                  
COLORADO CITY    N/A     84  23  10 W15G21    30.07S                  
PAGE, AZ       SUNNY     87  21   9 NW7       29.95F                  
GRAND CANYON   SUNNY     76  26  15 NE9       30.16R                  
KINGMAN, AZ    SUNNY     90  47  22 MISG      29.95S                  
FLAGSTAFF, AZ  MOSUNNY   74  40  29 SW10      30.15S                  

$$

REGIONAL REPORTS    NEVADA/IDAHO/WYOMING
  
CITY           SKY/WX    TMP DP  RH WIND       PRES   REMARKS
LAS VEGAS, NV  MOSUNNY   93  27   9 VRB5      29.86F                  
ELY, NY        SUNNY     75   9   8 NW6       30.13F                  
ELKO, NV       SUNNY     74  22  14 S7        30.12S                  
POCATELLO, ID  SUNNY     69  16  13 W20       30.11S                  
BURLEY, ID     SUNNY     70  22  16 W13G23    30.10S                  
FORT BRIDGER,    N/A     67   6   9 W23G30    30.20R                  
EVANSTON, WY   SUNNY     64  12  13 W13G20    30.19S                  
ROCK SPRINGS,  SUNNY     65   2   8 W24G33    30.12R                  
KEMMERER, WY   SUNNY     61   7  11 W18G24    30.18S                  

$$
  

Return to Home page


Western Regional Climate Center, wrcc@dri.edu